Location: *
(52.2090°N, 4.1550°W)
Time: 18:32:04
(UTC+00:00)

USA 215 - Pass Details

Date: 19 July 2019
Orbit: 1102 x 1106 km, 123.0° (Epoch: 11 August)

Event Time Altitude Azimuth Distance (km) Brightness Sun altitude
Rises 21:09:47 0° 60° (ENE) 3,926 6.0 -5.8°
Reaches altitude 10° 21:12:16 10° 62° (ENE) 2,967 5.4 -6.1°
Maximum altitude 21:18:50 78° 149° (SSE) 1,130 3.3 -6.7°
Drops below altitude 10° 21:25:24 10° 236° (SW) 2,959 5.6 -7.4°
Sets 21:27:53 0° 238° (WSW) 3,915 6.3 -7.7°
